Volver al catálogo

H-2A R/B

ActivoSSO
NORAD 27601·ROCKET BODY·🇯🇵 Japan

Lanzado Dec 14, 2002 desde Tanegashima Space Center

Loading…

Próximos Pases (próximas 24 horas)

TLE

ActualizadoSource: Space-Track

Época: Sep 14, 2026, 21:25 UTC

1 27601U 02056E   26257.89260039  .00000207  00000-0  87245-4 0  9997
2 27601  98.3411 211.3353 0069408 318.8825 103.8596 14.33862194241228

Sigue H-2A R/B en tiempo real con AllMySat

Download on the App Store